Total_Precipitation_Accumulation
0.66 0.65 0.67 0.70 0.50 0.43 0.42 0.42 0.59 0.67 0.62 0.40 0.52 0.88 1.11 0.82 0.37 0.24 0.25 0.25 0.65 0.60 0.36 0.21 0.18 0.11 0.06 0.07 0.11 0.14 0.17 0.19 0.20 0.18 0.14 0.12 0.15 0.21 0.28 0.33 0.27 0.23 0.22 0.25 0.26 0.27 0.29 0.32 0.34 0.38 0.40 0.40 0.43 0.43 0.41 0.37 0.33 0.31 0.29 0.26 0.26 0.26 0.26 0.27 0.27 0.27 0.26 0.25 0.23
0.64 0.63 0.62 0.54 0.44 0.40 0.38 0.35 0.46 0.58 0.60 0.43 0.44 0.81 1.10 0.93 0.36 0.18 0.18 0.17 0.55 0.69 0.56 0.19 0.15 0.11 0.07 0.07 0.09 0.12 0.15 0.17 0.20 0.18 0.14 0.11 0.12 0.15 0.20 0.25 0.21 0.20 0.21 0.24 0.27 0.28 0.29 0.30 0.35 0.39 0.42 0.44 0.47 0.49 0.46 0.32 0.38 0.41 0.40 0.34 0.36 0.35 0.32 0.32 0.29 0.28 0.28 0.30 0.27
0.60 0.61 0.60 0.51 0.43 0.39 0.35 0.29 0.35 0.46 0.51 0.44 0.40 0.77 1.12 1.04 0.37 0.15 0.16 0.16 0.44 0.60 0.56 0.22 0.16 0.12 0.09 0.07 0.09 0.13 0.16 0.16 0.18 0.17 0.15 0.13 0.13 0.14 0.16 0.19 0.17 0.19 0.21 0.24 0.26 0.27 0.27 0.28 0.32 0.36 0.40 0.44 0.48 0.49 0.43 0.28 0.32 0.42 0.49 0.46 0.48 0.46 0.41 0.36 0.33 0.32 0.33 0.36 0.32
0.58 0.60 0.59 0.46 0.39 0.35 0.32 0.25 0.25 0.31 0.39 0.43 0.48 0.78 1.07 1.09 0.39 0.15 0.17 0.21 0.38 0.48 0.45 0.23 0.18 0.17 0.16 0.11 0.18 0.19 0.18 0.18 0.18 0.16 0.15 0.16 0.15 0.15 0.16 0.19 0.20 0.21 0.23 0.25 0.25 0.25 0.24 0.24 0.30 0.34 0.38 0.41 0.45 0.46 0.44 0.39 0.34 0.35 0.39 0.37 0.45 0.52 0.54 0.45 0.39 0.37 0.37 0.38 0.37
0.54 0.53 0.52 0.40 0.35 0.31 0.27 0.22 0.18 0.21 0.31 0.50 0.60 0.85 1.07 1.09 0.42 0.22 0.26 0.33 0.35 0.37 0.35 0.21 0.16 0.19 0.24 0.26 0.25 0.23 0.22 0.22 0.20 0.18 0.17 0.19 0.16 0.15 0.17 0.22 0.27 0.30 0.30 0.28 0.27 0.26 0.25 0.25 0.32 0.35 0.36 0.38 0.43 0.45 0.44 0.39 0.40 0.39 0.40 0.50 0.48 0.46 0.48 0.58 0.52 0.47 0.42 0.40 0.44
0.56 0.50 0.45 0.38 0.35 0.31 0.27 0.22 0.21 0.21 0.28 0.45 0.65 0.88 1.05 1.08 0.49 0.33 0.37 0.36 0.32 0.28 0.24 0.21 0.15 0.26 0.40 0.43 0.40 0.36 0.33 0.28 0.24 0.21 0.20 0.20 0.17 0.18 0.20 0.22 0.28 0.34 0.39 0.42 0.32 0.30 0.30 0.32 0.37 0.39 0.39 0.40 0.40 0.42 0.42 0.41 0.45 0.48 0.53 0.65 0.58 0.53 0.50 0.52 0.57 0.57 0.55 0.50 0.54
0.54 0.47 0.43 0.40 0.43 0.39 0.32 0.28 0.24 0.22 0.26 0.37 0.58 0.80 0.94 0.95 0.54 0.39 0.37 0.34 0.29 0.24 0.20 0.20 0.21 0.33 0.48 0.55 0.57 0.54 0.49 0.42 0.36 0.30 0.26 0.25 0.24 0.22 0.21 0.21 0.24 0.31 0.41 0.49 0.43 0.39 0.36 0.32 0.37 0.39 0.39 0.41 0.42 0.42 0.42 0.44 0.45 0.47 0.50 0.61 0.56 0.56 0.57 0.56 0.50 0.53 0.57 0.58 0.57
0.55 0.47 0.40 0.42 0.42 0.38 0.33 0.29 0.27 0.26 0.26 0.26 0.46 0.71 0.88 0.86 0.50 0.38 0.36 0.32 0.31 0.27 0.21 0.14 0.18 0.29 0.42 0.49 0.54 0.56 0.57 0.55 0.51 0.45 0.39 0.34 0.34 0.27 0.20 0.20 0.23 0.27 0.32 0.40 0.49 0.48 0.43 0.39 0.37 0.35 0.34 0.34 0.40 0.42 0.42 0.37 0.38 0.37 0.40 0.50 0.51 0.51 0.52 0.53 0.54 0.56 0.56 0.52 0.55
0.61 0.48 0.36 0.37 0.40 0.39 0.36 0.32 0.30 0.27 0.24 0.21 0.36 0.63 0.84 0.78 0.48 0.36 0.35 0.35 0.31 0.27 0.21 0.12 0.16 0.27 0.38 0.43 0.48 0.52 0.55 0.58 0.56 0.53 0.50 0.46 0.45 0.38 0.30 0.26 0.25 0.26 0.29 0.31 0.32 0.33 0.37 0.45 0.41 0.36 0.31 0.27 0.33 0.34 0.34 0.33 0.32 0.31 0.32 0.37 0.44 0.46 0.47 0.48 0.55 0.59 0.61 0.60 0.62
0.53 0.42 0.35 0.43 0.41 0.41 0.39 0.33 0.32 0.28 0.22 0.20 0.33 0.61 0.81 0.74 0.49 0.41 0.39 0.31 0.32 0.31 0.25 0.13 0.15 0.23 0.32 0.38 0.45 0.49 0.51 0.53 0.50 0.47 0.45 0.46 0.48 0.49 0.46 0.37 0.32 0.31 0.33 0.34 0.37 0.35 0.34 0.37 0.38 0.36 0.32 0.26 0.23 0.27 0.32 0.32 0.30 0.29 0.30 0.33 0.32 0.41 0.50 0.50 0.52 0.55 0.56 0.55 0.61
0.42 0.38 0.37 0.38 0.38 0.38 0.37 0.36 0.36 0.30 0.25 0.29 0.40 0.60 0.75 0.69 0.50 0.45 0.44 0.39 0.39 0.35 0.27 0.16 0.15 0.16 0.21 0.27 0.36 0.41 0.45 0.50 0.48 0.43 0.38 0.35 0.38 0.42 0.46 0.48 0.41 0.38 0.40 0.45 0.46 0.46 0.45 0.41 0.38 0.36 0.34 0.31 0.25 0.25 0.26 0.26 0.27 0.29 0.30 0.31 0.28 0.37 0.47 0.48 0.48 0.51 0.51 0.46 0.53
0.35 0.30 0.31 0.35 0.35 0.32 0.32 0.40 0.36 0.30 0.28 0.33 0.44 0.63 0.75 0.67 0.55 0.51 0.50 0.43 0.39 0.34 0.27 0.20 0.15 0.13 0.14 0.20 0.29 0.34 0.37 0.41 0.49 0.49 0.43 0.35 0.34 0.37 0.43 0.52 0.48 0.46 0.45 0.48 0.51 0.55 0.58 0.55 0.48 0.43 0.40 0.36 0.32 0.30 0.29 0.29 0.30 0.31 0.31 0.30 0.29 0.34 0.39 0.41 0.43 0.44 0.44 0.41 0.50
0.28 0.25 0.28 0.37 0.36 0.32 0.31 0.41 0.38 0.32 0.29 0.32 0.49 0.68 0.77 0.68 0.55 0.51 0.49 0.43 0.37 0.35 0.33 0.28 0.21 0.16 0.14 0.18 0.28 0.31 0.30 0.28 0.44 0.54 0.57 0.47 0.42 0.42 0.45 0.51 0.51 0.50 0.48 0.47 0.47 0.52 0.59 0.66 0.60 0.56 0.53 0.48 0.42 0.38 0.37 0.40 0.38 0.35 0.32 0.31 0.31 0.33 0.35 0.35 0.36 0.37 0.38 0.40 0.44
0.21 0.21 0.26 0.36 0.33 0.29 0.28 0.35 0.34 0.30 0.28 0.32 0.56 0.75 0.84 0.77 0.63 0.51 0.44 0.43 0.41 0.40 0.38 0.33 0.31 0.23 0.17 0.20 0.26 0.26 0.23 0.17 0.22 0.46 0.68 0.65 0.59 0.54 0.53 0.56 0.57 0.56 0.52 0.48 0.44 0.44 0.47 0.54 0.56 0.59 0.60 0.60 0.55 0.50 0.48 0.53 0.50 0.43 0.36 0.33 0.31 0.31 0.31 0.31 0.30 0.34 0.37 0.37 0.37
0.19 0.21 0.28 0.35 0.29 0.26 0.26 0.32 0.32 0.29 0.29 0.37 0.63 0.82 0.90 0.84 0.73 0.55 0.41 0.42 0.43 0.43 0.42 0.40 0.41 0.33 0.24 0.23 0.23 0.21 0.17 0.13 0.15 0.41 0.69 0.75 0.72 0.68 0.65 0.63 0.66 0.64 0.58 0.50 0.45 0.40 0.37 0.37 0.41 0.47 0.53 0.60 0.61 0.59 0.59 0.62 0.61 0.57 0.49 0.39 0.34 0.31 0.30 0.31 0.31 0.33 0.36 0.33 0.35
0.18 0.25 0.33 0.32 0.25 0.24 0.27 0.31 0.29 0.28 0.32 0.47 0.69 0.85 0.94 0.93 0.84 0.59 0.38 0.41 0.44 0.43 0.42 0.40 0.42 0.40 0.36 0.33 0.26 0.21 0.19 0.17 0.18 0.33 0.53 0.71 0.75 0.73 0.69 0.65 0.61 0.61 0.62 0.61 0.51 0.43 0.37 0.33 0.31 0.34 0.40 0.49 0.56 0.58 0.59 0.62 0.63 0.65 0.64 0.57 0.46 0.41 0.38 0.36 0.40 0.43 0.43 0.38 0.36
0.21 0.28 0.34 0.27 0.21 0.22 0.26 0.28 0.25 0.28 0.38 0.56 0.69 0.82 0.91 0.97 0.93 0.64 0.37 0.39 0.41 0.41 0.40 0.38 0.39 0.40 0.42 0.41 0.34 0.29 0.26 0.25 0.24 0.26 0.35 0.57 0.68 0.69 0.65 0.62 0.54 0.53 0.58 0.69 0.60 0.51 0.43 0.40 0.36 0.34 0.34 0.36 0.44 0.47 0.49 0.55 0.60 0.63 0.65 0.68 0.61 0.56 0.52 0.48 0.56 0.58 0.57 0.53 0.47
0.25 0.30 0.32 0.24 0.18 0.20 0.25 0.26 0.24 0.29 0.39 0.53 0.62 0.72 0.83 0.95 0.96 0.72 0.48 0.46 0.44 0.40 0.37 0.36 0.37 0.39 0.40 0.39 0.37 0.33 0.30 0.30 0.28 0.27 0.31 0.43 0.55 0.58 0.58 0.59 0.59 0.58 0.59 0.66 0.63 0.58 0.52 0.47 0.45 0.41 0.37 0.34 0.38 0.41 0.43 0.50 0.55 0.58 0.60 0.61 0.63 0.62 0.61 0.61 0.61 0.63 0.64 0.64 0.59
0.25 0.28 0.28 0.21 0.19 0.21 0.25 0.26 0.25 0.29 0.36 0.44 0.50 0.60 0.74 0.99 0.99 0.81 0.63 0.63 0.55 0.47 0.41 0.36 0.36 0.38 0.38 0.31 0.31 0.29 0.28 0.28 0.29 0.28 0.28 0.34 0.51 0.56 0.55 0.56 0.65 0.69 0.70 0.70 0.66 0.63 0.59 0.53 0.53 0.50 0.45 0.40 0.43 0.44 0.45 0.49 0.52 0.55 0.59 0.64 0.67 0.67 0.67 0.69 0.58 0.54 0.55 0.57 0.59
0.23 0.24 0.22 0.18 0.21 0.24 0.26 0.25 0.23 0.28 0.35 0.41 0.48 0.56 0.75 1.12 1.13 0.94 0.74 0.71 0.63 0.55 0.48 0.40 0.39 0.40 0.38 0.29 0.28 0.29 0.30 0.29 0.30 0.30 0.32 0.39 0.55 0.61 0.62 0.62 0.70 0.75 0.77 0.78 0.73 0.68 0.65 0.63 0.61 0.57 0.53 0.47 0.51 0.52 0.52 0.53 0.53 0.56 0.63 0.75 0.81 0.82 0.79 0.75 0.61 0.52 0.47 0.47 0.50
0.21 0.21 0.20 0.21 0.24 0.25 0.25 0.26 0.25 0.32 0.40 0.45 0.51 0.65 0.89 1.31 1.35 1.18 0.92 0.73 0.64 0.56 0.50 0.44 0.41 0.38 0.36 0.32 0.30 0.32 0.35 0.39 0.38 0.39 0.40 0.40 0.49 0.58 0.65 0.65 0.69 0.73 0.78 0.82 0.79 0.75 0.73 0.70 0.66 0.62 0.61 0.64 0.64 0.64 0.64 0.65 0.62 0.62 0.70 0.89 0.99 0.97 0.91 0.85 0.74 0.66 0.57 0.48 0.47
0.21 0.22 0.22 0.25 0.26 0.25 0.26 0.31 0.34 0.42 0.50 0.54 0.63 0.88 1.21 1.55 1.56 1.39 1.10 0.75 0.66 0.61 0.57 0.49 0.42 0.38 0.36 0.35 0.32 0.34 0.39 0.43 0.46 0.41 0.35 0.34 0.39 0.48 0.57 0.57 0.61 0.66 0.72 0.79 0.81 0.84 0.83 0.76 0.73 0.70 0.72 0.85 0.81 0.79 0.80 0.82 0.82 0.80 0.82 0.95 1.03 1.02 0.98 0.97 0.91 0.83 0.75 0.65 0.54
0.19 0.22 0.24 0.28 0.29 0.30 0.35 0.43 0.53 0.57 0.63 0.76 0.96 1.21 1.45 1.58 1.51 1.39 1.16 0.78 0.69 0.66 0.64 0.58 0.50 0.42 0.37 0.37 0.33 0.32 0.34 0.36 0.31 0.27 0.23 0.22 0.25 0.32 0.38 0.42 0.45 0.50 0.58 0.66 0.74 0.83 0.89 0.90 0.80 0.81 0.89 1.01 1.01 0.99 0.96 0.95 0.96 0.97 0.96 0.95 0.96 0.99 1.04 1.07 1.06 1.03 0.97 0.87 0.74
0.20 0.25 0.32 0.39 0.44 0.51 0.61 0.72 0.86 0.91 0.94 1.03 1.13 1.18 1.20 1.16 1.13 1.06 0.88 0.57 0.53 0.52 0.53 0.52 0.45 0.36 0.29 0.26 0.24 0.23 0.22 0.18 0.17 0.17 0.16 0.16 0.17 0.22 0.28 0.33 0.34 0.36 0.40 0.45 0.51 0.61 0.73 0.84 0.81 0.84 0.93 1.03 1.09 1.11 1.10 1.08 1.03 1.01 1.00 0.98 0.97 1.02 1.09 1.15 1.21 1.22 1.18 1.08 0.96
0.39 0.45 0.51 0.58 0.68 0.81 0.95 1.08 1.12 1.04 0.93 0.85 0.79 0.74 0.70 0.67 0.69 0.61 0.47 0.32 0.28 0.27 0.27 0.27 0.23 0.19 0.16 0.15 0.14 0.13 0.12 0.12 0.12 0.13 0.14 0.15 0.15 0.19 0.24 0.32 0.37 0.39 0.40 0.43 0.44 0.47 0.51 0.57 0.62 0.68 0.78 0.96 1.06 1.17 1.25 1.28 1.19 1.08 0.99 0.93 0.94 1.05 1.17 1.22 1.27 1.28 1.24 1.14 1.01
0.64 0.70 0.77 0.84 0.99 1.16 1.29 1.31 0.97 0.73 0.59 0.49 0.44 0.41 0.39 0.38 0.35 0.32 0.27 0.20 0.18 0.17 0.16 0.15 0.14 0.14 0.14 0.15 0.14 0.15 0.16 0.15 0.15 0.14 0.13 0.14 0.15 0.16 0.19 0.24 0.36 0.40 0.41 0.41 0.41 0.43 0.46 0.47 0.54 0.60 0.70 0.91 1.02 1.15 1.28 1.39 1.36 1.27 1.14 0.97 1.08 1.09 1.10 1.16 1.15 1.14 1.12 1.09 1.01
0.93 1.01 1.08 1.17 1.22 1.26 1.21 1.04 0.62 0.43 0.37 0.32 0.29 0.26 0.24 0.22 0.21 0.19 0.18 0.17 0.14 0.12 0.12 0.13 0.14 0.15 0.15 0.15 0.15 0.16 0.18 0.17 0.15 0.15 0.16 0.15 0.14 0.14 0.15 0.17 0.23 0.30 0.36 0.39 0.40 0.42 0.45 0.48 0.46 0.54 0.65 0.76 0.95 1.09 1.21 1.36 1.47 1.50 1.44 1.30 1.38 1.34 1.24 1.14 1.04 1.05 1.09 1.10 1.08
1.23 1.30 1.29 1.25 1.08 0.93 0.76 0.56 0.37 0.30 0.28 0.24 0.21 0.18 0.17 0.16 0.15 0.15 0.16 0.16 0.11 0.10 0.12 0.17 0.17 0.18 0.18 0.18 0.17 0.17 0.16 0.16 0.17 0.18 0.18 0.17 0.17 0.16 0.16 0.17 0.19 0.23 0.29 0.36 0.37 0.38 0.37 0.33 0.36 0.42 0.49 0.57 0.65 0.78 0.94 1.08 1.26 1.42 1.55 1.60 1.43 1.33 1.27 1.23 1.13 1.12 1.16 1.21 1.20
1.31 1.23 1.06 0.82 0.64 0.50 0.40 0.33 0.28 0.25 0.23 0.19 0.17 0.15 0.14 0.14 0.13 0.14 0.15 0.14 0.10 0.12 0.16 0.19 0.20 0.21 0.21 0.20 0.18 0.17 0.18 0.21 0.20 0.19 0.19 0.19 0.19 0.18 0.18 0.19 0.21 0.25 0.29 0.32 0.30 0.30 0.30 0.28 0.30 0.34 0.40 0.48 0.54 0.60 0.69 0.83 0.95 1.07 1.19 1.32 1.21 1.20 1.22 1.21 1.17 1.10 1.06 1.08 1.18
0.61 0.61 0.61 0.44 0.35 0.29 0.27 0.27 0.23 0.22 0.21 0.19 0.17 0.14 0.12 0.10 0.12 0.14 0.16 0.17 0.16 0.17 0.19 0.20 0.21 0.21 0.21 0.19 0.19 0.19 0.20 0.21 0.18 0.17 0.18 0.18 0.18 0.18 0.18 0.19 0.22 0.26 0.30 0.32 0.28 0.26 0.26 0.28 0.29 0.32 0.37 0.45 0.53 0.60 0.65 0.71 0.79 0.87 0.93 0.97 1.04 1.14 1.23 1.31 1.26 1.18 1.09 1.02 1.02
0.43 0.34 0.27 0.22 0.24 0.24 0.23 0.24 0.22 0.21 0.21 0.20 0.18 0.15 0.13 0.12 0.15 0.20 0.24 0.26 0.21 0.20 0.21 0.21 0.21 0.21 0.20 0.19 0.19 0.18 0.17 0.16 0.17 0.17 0.17 0.16 0.16 0.16 0.17 0.19 0.22 0.28 0.31 0.30 0.28 0.26 0.25 0.25 0.27 0.30 0.34 0.41 0.49 0.55 0.61 0.67 0.73 0.81 0.88 0.92 0.98 1.06 1.15 1.26 1.29 1.26 1.20 1.12 1.04
0.35 0.30 0.26 0.25 0.24 0.23 0.23 0.25 0.27 0.27 0.26 0.24 0.20 0.18 0.19 0.29 0.30 0.29 0.29 0.27 0.22 0.20 0.21 0.21 0.22 0.23 0.23 0.22 0.18 0.15 0.14 0.13 0.14 0.17 0.18 0.17 0.17 0.18 0.19 0.21 0.25 0.29 0.31 0.29 0.27 0.25 0.24 0.24 0.27 0.29 0.32 0.35 0.42 0.48 0.54 0.59 0.66 0.72 0.77 0.78 0.88 0.95 1.01 1.12 1.22 1.30 1.33 1.31 1.31
0.41 0.39 0.36 0.33 0.32 0.30 0.30 0.34 0.43 0.44 0.39 0.35 0.35 0.33 0.32 0.33 0.35 0.34 0.33 0.30 0.26 0.21 0.18 0.19 0.20 0.20 0.20 0.18 0.15 0.13 0.13 0.13 0.15 0.17 0.18 0.18 0.18 0.18 0.20 0.22 0.26 0.30 0.31 0.29 0.26 0.24 0.23 0.22 0.25 0.27 0.29 0.33 0.37 0.40 0.43 0.47 0.54 0.55 0.56 0.63 0.70 0.81 0.92 0.98 1.09 1.18 1.26 1.31 1.26
0.62 0.58 0.54 0.48 0.45 0.43 0.43 0.46 0.49 0.50 0.47 0.39 0.35 0.32 0.29 0.26 0.27 0.27 0.25 0.23 0.20 0.16 0.13 0.15 0.16 0.16 0.17 0.16 0.15 0.15 0.14 0.15 0.15 0.16 0.17 0.17 0.18 0.19 0.21 0.24 0.30 0.33 0.33 0.31 0.27 0.24 0.21 0.19 0.20 0.23 0.26 0.30 0.33 0.35 0.37 0.39 0.44 0.47 0.50 0.55 0.60 0.66 0.74 0.86 0.93 1.02 1.11 1.18 1.12
0.81 0.72 0.61 0.53 0.49 0.47 0.47 0.47 0.48 0.49 0.46 0.36 0.31 0.26 0.23 0.20 0.19 0.19 0.18 0.18 0.16 0.14 0.12 0.12 0.14 0.15 0.16 0.16 0.16 0.16 0.16 0.16 0.17 0.17 0.17 0.16 0.17 0.20 0.23 0.28 0.35 0.38 0.38 0.35 0.30 0.26 0.22 0.18 0.16 0.17 0.20 0.25 0.28 0.31 0.34 0.36 0.39 0.41 0.43 0.48 0.54 0.59 0.64 0.68 0.73 0.83 0.94 0.99 0.96
0.86 0.76 0.64 0.57 0.54 0.54 0.53 0.47 0.41 0.39 0.36 0.31 0.26 0.22 0.19 0.17 0.17 0.16 0.16 0.15 0.13 0.12 0.11 0.11 0.13 0.16 0.18 0.18 0.18 0.18 0.18 0.18 0.17 0.16 0.16 0.16 0.16 0.18 0.22 0.28 0.37 0.41 0.41 0.40 0.34 0.29 0.24 0.19 0.16 0.14 0.15 0.20 0.22 0.25 0.28 0.32 0.32 0.35 0.39 0.43 0.49 0.54 0.58 0.61 0.65 0.70 0.73 0.76 0.81
0.84 0.79 0.74 0.69 0.65 0.61 0.53 0.38 0.33 0.31 0.30 0.28 0.24 0.20 0.18 0.16 0.16 0.15 0.15 0.14 0.14 0.13 0.12 0.12 0.13 0.15 0.16 0.17 0.18 0.19 0.19 0.18 0.17 0.16 0.16 0.16 0.15 0.16 0.19 0.25 0.32 0.35 0.35 0.37 0.34 0.30 0.27 0.22 0.18 0.14 0.12 0.13 0.17 0.20 0.23 0.26 0.27 0.30 0.35 0.39 0.45 0.50 0.54 0.58 0.61 0.63 0.65 0.65 0.69
0.80 0.79 0.77 0.75 0.70 0.62 0.49 0.33 0.29 0.27 0.27 0.26 0.22 0.18 0.16 0.15 0.15 0.14 0.14 0.13 0.13 0.13 0.13 0.12 0.14 0.15 0.15 0.15 0.16 0.17 0.17 0.18 0.16 0.16 0.16 0.16 0.16 0.15 0.16 0.20 0.24 0.28 0.31 0.32 0.30 0.28 0.25 0.22 0.18 0.15 0.13 0.13 0.15 0.16 0.18 0.20 0.23 0.27 0.30 0.35 0.40 0.45 0.49 0.52 0.56 0.58 0.60 0.60 0.63
0.76 0.72 0.69 0.66 0.62 0.55 0.44 0.29 0.26 0.24 0.23 0.23 0.20 0.17 0.14 0.15 0.15 0.14 0.13 0.12 0.12 0.12 0.12 0.12 0.13 0.13 0.13 0.12 0.13 0.14 0.16 0.17 0.17 0.17 0.16 0.16 0.17 0.16 0.15 0.18 0.23 0.26 0.28 0.29 0.28 0.25 0.22 0.19 0.17 0.15 0.13 0.13 0.14 0.15 0.16 0.17 0.20 0.23 0.25 0.30 0.34 0.39 0.42 0.45 0.49 0.51 0.52 0.52 0.55
0.67 0.62 0.59 0.56 0.53 0.47 0.39 0.28 0.25 0.23 0.21 0.19 0.17 0.14 0.13 0.12 0.13 0.13 0.12 0.11 0.12 0.13 0.12 0.12 0.11 0.11 0.11 0.11 0.12 0.13 0.15 0.17 0.18 0.18 0.18 0.18 0.18 0.18 0.18 0.20 0.22 0.25 0.26 0.27 0.26 0.24 0.21 0.19 0.16 0.14 0.13 0.13 0.14 0.15 0.16 0.17 0.18 0.19 0.22 0.25 0.28 0.32 0.36 0.38 0.41 0.41 0.42 0.45 0.49
0.55 0.50 0.47 0.45 0.43 0.38 0.32 0.26 0.24 0.22 0.20 0.16 0.14 0.12 0.10 0.09 0.09 0.09 0.10 0.12 0.13 0.14 0.13 0.12 0.11 0.10 0.11 0.11 0.11 0.13 0.15 0.17 0.19 0.20 0.20 0.19 0.20 0.21 0.21 0.21 0.21 0.23 0.25 0.25 0.25 0.24 0.22 0.19 0.16 0.14 0.13 0.13 0.14 0.14 0.14 0.15 0.16 0.18 0.19 0.20 0.22 0.26 0.30 0.32 0.34 0.36 0.37 0.41 0.45